Location: Peterborough
(44.3091°N, 78.3197°W)
Time: 00:44:17
(UTC-04:00)

SR - Pass Details

Date: 29 March 2023
Orbit: 581 x 867 km, 66.7° (Epoch: 02 June)

Event Time Altitude Azimuth Distance (km) Brightness Sun altitude
Rises 04:02:41 0° 255° (WSW) 2,941 - -29.8°
Reaches altitude 10° 04:05:42 10° 275° (W) 1,988 - -29.4°
Maximum altitude 04:08:41 17° 318° (NW) 1,528 - -29.0°
Exits shadow 04:10:07 15° 341° (NNW) 1,627 ? -28.8°
Drops below altitude 10° 04:11:36 10° 0° (N) 1,929 ? -28.6°
Sets 04:14:29 0° 21° (NNE) 2,815 ? -28.2°
